This demonstration page uses our WeatherBlox Daily Observations layout. Learn more.

Left ArrowRight Arrow

Hourly Observations for August 2, 2015

Temp ( °F °C ) Dew Point ( °F °C ) Humidity (%) Winds ( mph kmh ) Pressure ( in mb ) Visibility ( mi km ) Precip ( " mm )
12:53 am 00:53 Clear 63 17.2 61 16.1 93 93 N N/A 29.98 1015 10 16 N/A
1:53 am 01:53 Clear 63 17.2 61 16.1 93 93 N N/A 29.99 1016 10 16 N/A
2:53 am 02:53 Clear 63 17.2 61 16.1 93 93 N N/A 29.99 1016 10 16 N/A
3:53 am 03:53 Clear 62 16.7 61 16.1 96 96 N N/A 29.98 1015 10 16 N/A
4:53 am 04:53 Clear 62 16.7 60 15.6 93 93 N N/A 29.97 1015 9 14 N/A
5:53 am 05:53 Clear 61 16.1 60 15.6 97 97 N N/A 29.96 1015 10 16 N/A
6:53 am 06:53 Sunny 60 15.6 59 15 96 96 N N/A 29.97 1015 8 13 N/A
7:53 am 07:53 Sunny 67 19.4 63 17.2 87 87 N N/A 29.98 1015 10 16 N/A
8:53 am 08:53 Sunny 71 21.7 63 17.2 76 76 N N/A 29.99 1016 10 16 N/A
9:53 am 09:53 Sunny 77 25 62 16.7 60 60 N N/A 29.99 1016 10 16 N/A
10:53 am 10:53 Sunny 80 26.7 60 15.6 51 51 WSW 7 11 29.98 1015 10 16 N/A
11:53 am 11:53 Sunny 84 28.9 63 17.2 49 49 VRB 5 7 29.98 1015 10 16 N/A
12:53 pm 12:53 Sunny 85 29.4 60 15.6 43 43 VRB 6 9 29.97 1015 10 16 N/A
1:53 pm 13:53 Sunny 88 31.1 64 17.8 45 45 VRB 7 11 29.96 1015 10 16 N/A
2:53 pm 14:53 Sunny 87 30.6 62 16.7 43 43 SW 8 13 29.95 1014 10 16 N/A
3:53 pm 15:53 Sunny 88 31.1 61 16.1 40 40 SW 6 9 29.93 1014 10 16 N/A
4:53 pm 16:53 Sunny 89 31.7 62 16.7 41 41 undefined N/A 29.91 1013 10 16 N/A
5:53 pm 17:53 Sunny 86 30 62 16.7 45 45 SW 8 13 29.89 1012 10 16 N/A
6:53 pm 18:53 Sunny 85 29.4 62 16.7 46 46 VRB 7 11 29.89 1012 10 16 N/A
7:53 pm 19:53 Sunny 84 28.9 60 15.6 44 44 VRB 5 7 29.86 1011 10 16 N/A
8:53 pm 20:53 Clear 75 23.9 63 17.2 66 66 SSW 3 6 29.86 1011 10 16 N/A
9:53 pm 21:53 Clear 71 21.7 63 17.2 76 76 S 3 6 29.88 1012 10 16 N/A
10:53 pm 22:53 Clear 69 20.6 63 17.2 81 81 SSW 3 6 29.88 1012 10 16 N/A
11:53 pm 23:53 Clear 73 22.8 61 16.1 66 66 S 5 7 29.86 1011 10 16 N/A

Powered by AerisWeather